Flag for Switzerland Weather past 2 weeks in Worb, Bern, Switzerland

Now
32 °F

Clear.


Feels Like: 32 °F
Forecast: 33 / 57 °F
Wind: 2 mph from Northeast

Location: Bern / Belp


UV Index: 3 (Moderate)

Visibility: 10 mi


Pressure: 30.21 "Hg

Humidity: 87%

Dew point: 28 °F

Location of WorbLocation

Historic Weather in Worb

°F

Worb temperature yesterday

Maximum temperature yesterday: 55 °F (at 4:50 PM)
Minimum temperature yesterday: 28 °F (at 5:20 AM)
Average temperature yesterday: 43 °F

Past Weeks' High & Low Weather Summary

 TemperatureHumidityPressure
High72 °F (Apr 7, 5:20 PM)100% (Apr 2, 4:50 AM)30.30 "Hg (Apr 2, 4:50 AM)
Low28 °F (Apr 16, 5:20 AM)22% (Apr 9, 5:20 PM)29.65 "Hg (Apr 3, 4:20 PM)
Average52 °F71%30.03 "Hg
* Reported Apr 2 1:20 AM — Apr 17 1:50 AM, Worb, Weather by CustomWeather, © 2014

Note: Actual official high and low records may vary slightly from our data, if they occured in-between our weather recording intervals... More about our weather records

Advertising

Historic Weather Conditions — Data for Previous 24 hours

 ConditionsComfort  
Time TempWeatherWind HumidityBarometerVisibility
1:50 AM
Apr 17
32 °FClear.1 mph87%30.21 "Hg10 mi
1:20 AM34 °FClear.1 mph87%30.21 "Hg10 mi
12:50 AM37 °FClear.1 mph70%30.21 "Hg10 mi
12:20 AM37 °FClear.1 mph70%30.21 "Hg10 mi
11:50 PM
Apr 16
37 °FClear.1 mph75%30.21 "Hg10 mi
11:20 PM37 °FClear.2 mph70%30.24 "Hg10 mi
10:50 PM37 °FClear.2 mph70%30.24 "Hg10 mi
10:20 PM43 °FClear.1 mph57%30.24 "Hg10 mi
9:50 PM46 °FClear.1 mph46%30.24 "Hg10 mi
9:20 PM45 °FPassing clouds.5 mph49%30.24 "HgN/A
8:50 PM48 °FSunny.6 mph43%30.21 "Hg10 mi
8:20 PM48 °FPassing clouds.9 mph46%30.21 "HgN/A
7:50 PM50 °FPassing clouds.9 mph40%30.21 "HgN/A
7:20 PM52 °FPassing clouds.10 mph38%30.21 "HgN/A
6:50 PM52 °FPassing clouds.13 mph41%30.21 "HgN/A
6:20 PM54 °FPassing clouds.13 mph38%30.21 "HgN/A
5:50 PM54 °FPassing clouds.12 mph35%30.21 "HgN/A
5:20 PM54 °FPassing clouds.12 mph38%30.18 "HgN/A
4:50 PM55 °FPassing clouds.9 mph38%30.21 "HgN/A
4:20 PM54 °FPassing clouds.12 mph35%30.21 "HgN/A
3:50 PM54 °FPassing clouds.13 mph38%30.21 "HgN/A
3:20 PM54 °FPassing clouds.12 mph41%30.21 "HgN/A
2:50 PM52 °FPassing clouds.12 mph41%30.21 "HgN/A
2:20 PM52 °FPassing clouds.9 mph38%30.21 "HgN/A
1:50 PM52 °FPassing clouds.9 mph41%30.21 "HgN/A
1:20 PM50 °FPassing clouds.13 mph40%30.21 "HgN/A
12:50 PM50 °FPassing clouds.12 mph43%30.21 "HgN/A
12:20 PM50 °FPassing clouds.10 mph43%30.21 "HgN/A
11:50 AM48 °FPassing clouds.10 mph46%30.21 "HgN/A
11:20 AM48 °FPassing clouds.8 mph46%30.21 "HgN/A
10:50 AM46 °FPassing clouds.7 mph50%30.21 "HgN/A
10:20 AM45 °FPassing clouds.8 mph53%30.21 "HgN/A
9:50 AM43 °FPassing clouds.8 mph57%30.21 "HgN/A
9:20 AM43 °FSunny.2 mph61%30.24 "Hg10 mi
8:50 AM39 °FSunny.No wind70%30.24 "Hg10 mi
8:20 AM36 °FSunny.1 mph75%30.24 "Hg10 mi
7:50 AM32 °FSunny.2 mph87%30.24 "Hg10 mi
7:20 AM28 °FClear.No wind93%30.21 "Hg10 mi
6:50 AM28 °FClear.No wind93%30.21 "Hg10 mi
6:20 AM28 °FClear.2 mph93%30.21 "Hg10 mi
5:50 AM30 °FPassing clouds.No wind86%30.21 "HgN/A
5:20 AM28 °FPassing clouds.1 mph100%30.21 "HgN/A
4:50 AM30 °FClear.1 mph93%30.21 "Hg10 mi
4:20 AM32 °FClear.2 mph87%30.24 "Hg10 mi
3:50 AM32 °FClear.No wind80%30.24 "Hg10 mi
3:20 AM32 °FClear.1 mph80%30.24 "Hg10 mi
2:50 AM32 °FClear.3 mph87%30.24 "Hg10 mi
Weather by CustomWeather, © 2014

See weather overview